Вернуться в каталог

STARLINK-32114

АктивенСвязьVLEO
NORAD 60287·PAYLOAD·🇺🇸 United States

Запущен Jul 28, 2024 с Cape Canaveral Space Force Station

Loading…

Ближайшие Пролёты (ближайшие 24 часа)

TLE

СвежийSource: CelesTrak SupGP

Эпоха: Sep 15, 2026, 02:46 UTC

1 60287C 24132K   26258.11576389 -.00038911  00000+0 -12511-2 0  2581
2 60287  53.1585 251.6008 0001356  87.1028 357.4117 15.31726221    14

Отслеживайте STARLINK-32114 в реальном времени с AllMySat

Download on the App Store